カタログに戻る

STARLINK-36664

運用中通信VLEO
NORAD 68965·PAYLOAD·🇺🇸 United States

打ち上げ May 1, 2026 から Cape Canaveral Space Force Station

Loading…

次のパス (今後24時間)

TLE

最新Source: CelesTrak SupGP

元期: Sep 15, 2026, 03:37 UTC

1 68965C 26099Q   26258.15118056 -.00012102  00000+0 -35758-3 0  2586
2 68965  53.1571 100.7309 0001232  84.2800 289.2819 15.34394799    12

AllMySatでSTARLINK-36664をリアルタイム追跡

Download on the App Store